Time,TemperatureF,DewpointF,PressureIn,WindDirection,WindDirectionDegrees,WindSpeedMPH,WindSpeedGustMPH,Humidity,HourlyPrecipIn,Conditions,Clouds,dailyrainin,SolarRadiationWatts/m^2,SoftwareType,DateUTC
2013-03-22 00:12:00,43.0,30.0,-100.00,South,180,3.0,8.0,60,0.00,,,0.00,0.000000,,2013-03-22 07:12:00,
2013-03-22 00:22:00,43.0,30.0,-100.00,South,180,3.0,8.0,60,0.00,,,0.00,0.000000,,2013-03-22 07:22:00,
2013-03-22 00:32:00,43.0,30.0,-100.00,South,180,3.0,8.0,60,0.00,,,0.00,0.000000,,2013-03-22 07:32:00,
2013-03-22 00:42:00,43.0,30.0,-100.00,South,180,3.0,8.0,60,0.00,,,0.00,0.000000,,2013-03-22 07:42:00,
2013-03-22 01:12:00,42.0,34.0,-100.00,South,189,4.0,9.0,73,0.00,,,0.00,0.000000,,2013-03-22 08:12:00,
2013-03-22 01:22:00,42.0,34.0,-100.00,South,189,4.0,9.0,73,0.00,,,0.00,0.000000,,2013-03-22 08:22:00,
2013-03-22 01:32:00,42.0,34.0,-100.00,South,189,4.0,9.0,73,0.00,,,0.00,0.000000,,2013-03-22 08:32:00,
2013-03-22 01:42:00,42.0,34.0,-100.00,South,189,4.0,9.0,73,0.00,,,0.00,0.000000,,2013-03-22 08:42:00,
2013-03-22 01:51:00,42.0,34.0,-100.00,South,189,4.0,9.0,73,0.00,,,0.00,0.000000,,2013-03-22 08:51:00,
2013-03-22 01:52:00,41.0,34.0,-100.00,SSW,194,3.0,8.0,75,0.00,,,0.00,0.000000,,2013-03-22 08:52:00,
2013-03-22 02:12:00,41.0,34.0,-100.00,SSW,194,3.0,8.0,75,0.00,,,0.00,0.000000,,2013-03-22 09:12:00,
2013-03-22 02:22:00,41.0,34.0,-100.00,SSW,194,3.0,8.0,75,0.00,,,0.00,0.000000,,2013-03-22 09:22:00,
2013-03-22 02:32:00,41.0,34.0,-100.00,SSW,194,3.0,8.0,75,0.00,,,0.00,0.000000,,2013-03-22 09:32:00,
2013-03-22 02:42:00,41.0,34.0,-100.00,SSW,194,3.0,8.0,75,0.00,,,0.00,0.000000,,2013-03-22 09:42:00,
2013-03-22 02:52:00,41.0,34.0,-100.00,SSW,199,5.0,14.0,75,0.00,,,0.00,0.000000,,2013-03-22 09:52:00,
2013-03-22 03:22:00,41.0,34.0,-100.00,SSW,199,5.0,14.0,75,0.00,,,0.00,0.000000,,2013-03-22 10:22:00,
2013-03-22 03:32:00,41.0,34.0,-100.00,SSW,199,5.0,14.0,75,0.00,,,0.00,0.000000,,2013-03-22 10:32:00,
2013-03-22 03:42:00,41.0,34.0,-100.00,SSW,199,5.0,14.0,75,0.00,,,0.00,0.000000,,2013-03-22 10:42:00,
2013-03-22 03:52:00,43.0,17.0,-100.00,West,265,6.0,21.0,35,0.00,,,0.00,0.000000,,2013-03-22 10:52:00,
2013-03-22 04:12:00,43.0,17.0,-100.00,West,265,6.0,21.0,35,0.00,,,0.00,0.000000,,2013-03-22 11:12:00,
2013-03-22 04:22:00,43.0,17.0,-100.00,West,265,6.0,21.0,35,0.00,,,0.00,0.000000,,2013-03-22 11:22:00,
2013-03-22 04:32:00,43.0,17.0,-100.00,West,265,6.0,21.0,35,0.00,,,0.00,0.000000,,2013-03-22 11:32:00,
2013-03-22 04:42:00,43.0,17.0,-100.00,West,265,6.0,21.0,35,0.00,,,0.00,0.000000,,2013-03-22 11:42:00,
2013-03-22 05:12:00,41.0,19.0,-100.00,SW,216,4.0,17.0,41,0.00,,,0.00,0.000000,,2013-03-22 12:12:00,
2013-03-22 05:22:00,41.0,19.0,-100.00,SW,216,4.0,17.0,41,0.00,,,0.00,0.000000,,2013-03-22 12:22:00,
2013-03-22 05:32:00,41.0,19.0,-100.00,SW,216,4.0,17.0,41,0.00,,,0.00,0.000000,,2013-03-22 12:32:00,
2013-03-22 05:42:00,41.0,19.0,-100.00,SW,216,4.0,17.0,41,0.00,,,0.00,0.000000,,2013-03-22 12:42:00,
2013-03-22 05:51:00,41.0,19.0,-100.00,SW,216,4.0,17.0,41,0.00,,,0.00,0.000000,,2013-03-22 12:51:00,
2013-03-22 05:52:00,42.0,16.0,-100.00,WNW,303,4.0,9.0,34,0.00,,,0.00,0.000000,,2013-03-22 12:52:00,
2013-03-22 06:12:00,42.0,16.0,-100.00,WNW,303,4.0,9.0,34,0.00,,,0.00,0.000000,,2013-03-22 13:12:00,
2013-03-22 06:22:00,42.0,16.0,-100.00,WNW,303,4.0,9.0,34,0.00,,,0.00,0.000000,,2013-03-22 13:22:00,
2013-03-22 06:32:00,42.0,16.0,-100.00,WNW,303,4.0,9.0,34,0.00,,,0.00,0.000000,,2013-03-22 13:32:00,
2013-03-22 06:42:00,42.0,16.0,-100.00,WNW,303,4.0,9.0,34,0.00,,,0.00,0.000000,,2013-03-22 13:42:00,
2013-03-22 06:52:00,42.0,18.0,-100.00,NNE,21,2.0,6.0,37,0.00,,,0.00,1.000000,,2013-03-22 13:52:00,
2013-03-22 07:22:00,42.0,18.0,-100.00,NNE,21,2.0,6.0,37,0.00,,,0.00,1.000000,,2013-03-22 14:22:00,
2013-03-22 07:32:00,42.0,18.0,-100.00,NNE,21,2.0,6.0,37,0.00,,,0.00,1.000000,,2013-03-22 14:32:00,
2013-03-22 07:42:00,42.0,18.0,-100.00,NNE,21,2.0,6.0,37,0.00,,,0.00,1.000000,,2013-03-22 14:42:00,
2013-03-22 07:52:00,44.0,19.0,-100.00,NE,43,2.0,6.0,37,0.00,,,0.00,26.000000,,2013-03-22 14:52:00,
2013-03-22 08:12:00,44.0,19.0,-100.00,NE,43,2.0,6.0,37,0.00,,,0.00,26.000000,,2013-03-22 15:12:00,
2013-03-22 08:22:00,44.0,19.0,-100.00,NE,43,2.0,6.0,37,0.00,,,0.00,26.000000,,2013-03-22 15:22:00,
2013-03-22 08:32:00,44.0,19.0,-100.00,NE,43,2.0,6.0,37,0.00,,,0.00,26.000000,,2013-03-22 15:32:00,
2013-03-22 08:42:00,44.0,19.0,-100.00,NE,43,2.0,6.0,37,0.00,,,0.00,26.000000,,2013-03-22 15:42:00,
2013-03-22 08:52:00,55.0,18.0,-100.00,NNE,19,3.0,7.0,23,0.00,,,0.00,239.000000,,2013-03-22 15:52:00,
2013-03-22 09:13:00,55.0,18.0,-100.00,NNE,19,3.0,7.0,23,0.00,,,0.00,239.000000,,2013-03-22 16:13:00,
2013-03-22 09:22:00,55.0,18.0,-100.00,NNE,19,3.0,7.0,23,0.00,,,0.00,239.000000,,2013-03-22 16:22:00,
2013-03-22 09:32:00,55.0,18.0,-100.00,NNE,19,3.0,7.0,23,0.00,,,0.00,239.000000,,2013-03-22 16:32:00,
2013-03-22 09:42:00,55.0,18.0,-100.00,NNE,19,3.0,7.0,23,0.00,,,0.00,239.000000,,2013-03-22 16:42:00,
2013-03-22 09:52:00,58.0,16.0,-100.00,North,359,4.0,9.0,19,0.00,,,0.00,533.000000,,2013-03-22 16:52:00,
2013-03-22 10:23:00,58.0,16.0,-100.00,North,359,4.0,9.0,19,0.00,,,0.00,533.000000,,2013-03-22 17:23:00,
2013-03-22 10:32:00,58.0,16.0,-100.00,North,359,4.0,9.0,19,0.00,,,0.00,533.000000,,2013-03-22 17:32:00,
2013-03-22 10:42:00,58.0,16.0,-100.00,North,359,4.0,9.0,19,0.00,,,0.00,533.000000,,2013-03-22 17:42:00,
2013-03-22 10:52:00,60.0,18.0,-100.00,NNE,27,4.0,10.0,19,0.00,,,0.00,728.000000,,2013-03-22 17:52:00,
2013-03-22 11:12:00,60.0,18.0,-100.00,NNE,27,4.0,10.0,19,0.00,,,0.00,728.000000,,2013-03-22 18:12:00,
2013-03-22 11:22:00,60.0,18.0,-100.00,NNE,27,4.0,10.0,19,0.00,,,0.00,728.000000,,2013-03-22 18:22:00,
2013-03-22 11:32:00,60.0,18.0,-100.00,NNE,27,4.0,10.0,19,0.00,,,0.00,728.000000,,2013-03-22 18:32:00,
2013-03-22 11:42:00,60.0,18.0,-100.00,NNE,27,4.0,10.0,19,0.00,,,0.00,728.000000,,2013-03-22 18:42:00,
2013-03-22 12:12:00,61.0,22.0,-100.00,ENE,64,4.0,11.0,22,0.00,,,0.00,874.000000,,2013-03-22 19:12:00,
2013-03-22 12:22:00,61.0,22.0,-100.00,ENE,64,4.0,11.0,22,0.00,,,0.00,874.000000,,2013-03-22 19:22:00,
2013-03-22 12:32:00,61.0,22.0,-100.00,ENE,64,4.0,11.0,22,0.00,,,0.00,874.000000,,2013-03-22 19:32:00,
2013-03-22 12:42:00,61.0,22.0,-100.00,ENE,64,4.0,11.0,22,0.00,,,0.00,874.000000,,2013-03-22 19:42:00,
2013-03-22 12:51:00,61.0,22.0,-100.00,ENE,64,4.0,11.0,22,0.00,,,0.00,874.000000,,2013-03-22 19:51:00,
2013-03-22 13:12:00,60.0,21.0,-100.00,ESE,120,4.0,11.0,22,0.00,,,0.00,950.000000,,2013-03-22 20:12:00,
2013-03-22 13:22:00,60.0,21.0,-100.00,ESE,120,4.0,11.0,22,0.00,,,0.00,950.000000,,2013-03-22 20:22:00,
2013-03-22 13:32:00,60.0,21.0,-100.00,ESE,120,4.0,11.0,22,0.00,,,0.00,950.000000,,2013-03-22 20:32:00,
2013-03-22 13:42:00,60.0,21.0,-100.00,ESE,120,4.0,11.0,22,0.00,,,0.00,950.000000,,2013-03-22 20:42:00,
2013-03-22 13:51:00,60.0,21.0,-100.00,ESE,120,4.0,11.0,22,0.00,,,0.00,950.000000,,2013-03-22 20:51:00,
2013-03-22 13:52:00,61.0,22.0,-100.00,East,96,4.0,10.0,22,0.00,,,0.00,958.000000,,2013-03-22 20:52:00,
2013-03-22 14:22:00,61.0,22.0,-100.00,East,96,4.0,10.0,22,0.00,,,0.00,958.000000,,2013-03-22 21:22:00,
2013-03-22 14:32:00,61.0,22.0,-100.00,East,96,4.0,10.0,22,0.00,,,0.00,958.000000,,2013-03-22 21:32:00,
2013-03-22 14:42:00,61.0,22.0,-100.00,East,96,4.0,10.0,22,0.00,,,0.00,958.000000,,2013-03-22 21:42:00,
2013-03-22 14:52:00,60.0,21.0,-100.00,SE,134,4.0,8.0,22,0.00,,,0.00,784.000000,,2013-03-22 21:52:00,
2013-03-22 15:12:00,60.0,21.0,-100.00,SE,134,4.0,8.0,22,0.00,,,0.00,784.000000,,2013-03-22 22:12:00,
2013-03-22 15:23:00,60.0,21.0,-100.00,SE,134,4.0,8.0,22,0.00,,,0.00,784.000000,,2013-03-22 22:23:00,
2013-03-22 15:32:00,60.0,21.0,-100.00,SE,134,4.0,8.0,22,0.00,,,0.00,784.000000,,2013-03-22 22:32:00,
2013-03-22 15:42:00,60.0,21.0,-100.00,SE,134,4.0,8.0,22,0.00,,,0.00,784.000000,,2013-03-22 22:42:00,
2013-03-22 15:52:00,62.0,26.0,-100.00,SE,144,3.0,8.0,25,0.00,,,0.00,671.000000,,2013-03-22 22:52:00,
2013-03-22 16:22:00,62.0,26.0,-100.00,SE,144,3.0,8.0,25,0.00,,,0.00,671.000000,,2013-03-22 23:22:00,
2013-03-22 16:32:00,62.0,26.0,-100.00,SE,144,3.0,8.0,25,0.00,,,0.00,671.000000,,2013-03-22 23:32:00,
2013-03-22 16:42:00,62.0,26.0,-100.00,SE,144,3.0,8.0,25,0.00,,,0.00,671.000000,,2013-03-22 23:42:00,
2013-03-22 17:12:00,58.0,37.0,-100.00,SW,227,5.0,14.0,45,0.00,,,0.00,570.000000,,2013-03-23 00:12:00,
2013-03-22 17:23:00,58.0,37.0,-100.00,SW,227,5.0,14.0,45,0.00,,,0.00,570.000000,,2013-03-23 00:23:00,
2013-03-22 17:32:00,58.0,37.0,-100.00,SW,227,5.0,14.0,45,0.00,,,0.00,570.000000,,2013-03-23 00:32:00,
2013-03-22 17:42:00,58.0,37.0,-100.00,SW,227,5.0,14.0,45,0.00,,,0.00,570.000000,,2013-03-23 00:42:00,
2013-03-22 17:51:00,58.0,37.0,-100.00,SW,227,5.0,14.0,45,0.00,,,0.00,570.000000,,2013-03-23 00:51:00,
2013-03-22 17:52:00,53.0,42.0,-100.00,West,268,4.0,13.0,65,0.00,,,0.00,183.000000,,2013-03-23 00:52:00,
2013-03-22 18:22:00,53.0,42.0,-100.00,West,268,4.0,13.0,65,0.00,,,0.00,183.000000,,2013-03-23 01:22:00,
2013-03-22 18:32:00,53.0,42.0,-100.00,West,268,4.0,13.0,65,0.00,,,0.00,183.000000,,2013-03-23 01:32:00,
2013-03-22 18:42:00,53.0,42.0,-100.00,West,268,4.0,13.0,65,0.00,,,0.00,183.000000,,2013-03-23 01:42:00,
2013-03-22 19:12:00,49.0,37.0,-100.00,SSW,199,2.0,8.0,62,0.00,,,0.00,30.000000,,2013-03-23 02:12:00,
2013-03-22 19:22:00,49.0,37.0,-100.00,SSW,199,2.0,8.0,62,0.00,,,0.00,30.000000,,2013-03-23 02:22:00,
2013-03-22 19:31:00,49.0,37.0,-100.00,SSW,199,2.0,8.0,62,0.00,,,0.00,30.000000,,2013-03-23 02:31:00,
2013-03-22 19:42:00,49.0,37.0,-100.00,SSW,199,2.0,8.0,62,0.00,,,0.00,30.000000,,2013-03-23 02:42:00,
2013-03-22 19:51:00,49.0,37.0,-100.00,SSW,199,2.0,8.0,62,0.00,,,0.00,30.000000,,2013-03-23 02:51:00,
2013-03-22 19:52:00,42.0,33.0,-100.00,South,169,1.0,5.0,71,0.00,,,0.00,2.000000,,2013-03-23 02:52:00,
2013-03-22 20:12:00,42.0,33.0,-100.00,South,169,1.0,5.0,71,0.00,,,0.00,2.000000,,2013-03-23 03:12:00,
2013-03-22 20:22:00,42.0,33.0,-100.00,South,169,1.0,5.0,71,0.00,,,0.00,2.000000,,2013-03-23 03:22:00,
2013-03-22 20:33:00,42.0,33.0,-100.00,South,169,1.0,5.0,71,0.00,,,0.00,2.000000,,2013-03-23 03:33:00,
2013-03-22 20:43:00,42.0,33.0,-100.00,South,169,1.0,5.0,71,0.00,,,0.00,2.000000,,2013-03-23 03:43:00,
2013-03-22 20:52:00,38.0,30.0,-100.00,ENE,77,1.0,4.0,72,0.00,,,0.00,0.000000,,2013-03-23 03:52:00,
2013-03-22 21:12:00,38.0,30.0,-100.00,ENE,77,1.0,4.0,72,0.00,,,0.00,0.000000,,2013-03-23 04:12:00,
2013-03-22 21:23:00,38.0,30.0,-100.00,ENE,77,1.0,4.0,72,0.00,,,0.00,0.000000,,2013-03-23 04:23:00,
2013-03-22 21:32:00,38.0,30.0,-100.00,ENE,77,1.0,4.0,72,0.00,,,0.00,0.000000,,2013-03-23 04:32:00,
2013-03-22 21:42:00,38.0,30.0,-100.00,ENE,77,1.0,4.0,72,0.00,,,0.00,0.000000,,2013-03-23 04:42:00,
2013-03-22 21:52:00,41.0,31.0,-100.00,SW,225,3.0,7.0,68,0.00,,,0.00,0.000000,,2013-03-23 04:52:00,
2013-03-22 22:12:00,41.0,31.0,-100.00,SW,225,3.0,7.0,68,0.00,,,0.00,0.000000,,2013-03-23 05:12:00,
2013-03-22 22:22:00,41.0,31.0,-100.00,SW,225,3.0,7.0,68,0.00,,,0.00,0.000000,,2013-03-23 05:22:00,
2013-03-22 22:32:00,41.0,31.0,-100.00,SW,225,3.0,7.0,68,0.00,,,0.00,0.000000,,2013-03-23 05:32:00,
2013-03-22 22:42:00,41.0,31.0,-100.00,SW,225,3.0,7.0,68,0.00,,,0.00,0.000000,,2013-03-23 05:42:00,
2013-03-22 23:22:00,40.0,23.0,-100.00,South,185,3.0,6.0,51,0.00,,,0.00,0.000000,,2013-03-23 06:22:00,
2013-03-22 23:32:00,40.0,23.0,-100.00,South,185,3.0,6.0,51,0.00,,,0.00,0.000000,,2013-03-23 06:32:00,
2013-03-22 23:42:00,40.0,23.0,-100.00,South,185,3.0,6.0,51,0.00,,,0.00,0.000000,,2013-03-23 06:42:00,
2013-03-22 23:51:00,40.0,23.0,-100.00,South,185,3.0,6.0,51,0.00,,,0.00,0.000000,,2013-03-23 06:51:00,
2013-03-22 23:52:00,39.0,19.0,-100.00,SE,137,1.0,9.0,45,0.00,,,0.00,0.000000,,2013-03-23 06:52:00,